Location: Lane
(33.5226°N, 79.8788°W)
Time: 07:50:09
(UTC+00:00)

Explorer 7 - Pass Details

Date: 08 October 2022
Orbit: 481 x 665 km, 50.3° (Epoch: 28 November)

Event Time Altitude Azimuth Distance (km) Brightness Sun altitude
Rises 16:29:31 0° 304° (NW) 3,002 10.3 49.4°
Reaches altitude 10° 16:34:25 10° 348° (NNW) 2,079 9.5 49.7°
Maximum altitude 16:35:02 10° 355° (N) 2,062 9.5 49.7°
Drops below altitude 10° 16:35:39 10° 3° (N) 2,073 9.5 49.7°
Sets 16:40:29 0° 46° (NE) 2,949 10.3 49.9°
